Starlink 34760

operational
NORAD ID: 65359 Int'l Des: 2025-190 Owner: SPXS Country: US Constellation: starlink
LEOCIRCULAR

Starlink 34760について

説明を読み込み中...

リアルタイム位置

3D地球を読み込み中...

次回通過

高度履歴

Altitude vs Time

uPlot chart will show altitude changes over time

軌道要素

1 65359U 25190J 25340.97881734 .00052063 00000-0 17582-2 0 9997
2 65359 53.1603 238.6071 0001402 98.2171 261.8989 15.30189894 15096
Epoch: Dec 6, 2025 • Age: 21 hours

現在のステータス

高度 474.7 km
速度 7.63 km/s
衛星直下点 12.89°N, 19.11°E
打ち上げ日 Aug 28, 2025
運用期間 0.2 years
タイプ internet

技術仕様

分類 Payload
質量 575.00 kg
乾燥質量 530.00 kg
総質量 575.00 kg
長さ 0.30 m
直径 4.10 m
スパン 29.00 m
形状 Box + pan
製造者 SPXS
バスタイプ Starlink V2MO
フェーズステータス In Orbit
所有者/国 SPXS/US

大規模コンステレーション

Loading constellations...